Location: ?ejkovice
(49.0137°N, 14.3821°E)
Time: 23:01:31
(UTC+00:00)

IRAS Rocket - Pass Details

Date: 23 May 2024
Orbit: 846 x 877 km, 100.1° (Epoch: 22 June)

Event Time Altitude Azimuth Distance (km) Brightness Sun altitude
Rises 02:14:27 0° 15° (NNE) 3,439 8.5 -7.9°
Reaches altitude 10° 02:16:51 10° 13° (NNE) 2,495 7.7 -7.7°
Maximum altitude 02:22:21 73° 290° (WNW) 891 4.3 -7.0°
Drops below altitude 10° 02:27:47 10° 207° (SSW) 2,465 6.0 -6.3°
Enters shadow 02:28:53 - 206° (SSW) 2,897 6.4 -6.2°
